Time,TemperatureF,DewpointF,PressureIn,WindDirection,WindDirectionDegrees,WindSpeedMPH,WindSpeedGustMPH,Humidity,HourlyPrecipIn,Conditions,Clouds,dailyrainin,SolarRadiationWatts/m^2,SoftwareType,DateUTC
2013-02-25 00:00:00,33.1,24.1,29.99,ESE,108,1.0,9.0,69,0.00,,,0.03,0.0,meteohub,2013-02-25 05:00:00,
2013-02-25 00:01:00,33.1,24.4,29.99,WSW,241,0.0,7.0,70,0.00,,,0.03,0.0,meteohub,2013-02-25 05:01:00,
2013-02-25 00:06:00,32.7,23.7,29.99,NNW,329,1.0,7.0,69,0.00,,,0.00,0.0,meteohub,2013-02-25 05:06:00,
2013-02-25 00:11:00,33.1,23.7,29.99,NNE,17,1.0,9.0,68,0.00,,,0.00,0.0,meteohub,2013-02-25 05:11:00,
2013-02-25 00:17:00,33.1,24.1,29.99,NW,312,2.0,9.0,69,0.00,,,0.00,0.0,meteohub,2013-02-25 05:17:00,
2013-02-25 00:22:00,32.7,23.7,30.00,NE,40,0.0,5.0,69,0.00,,,0.00,0.0,meteohub,2013-02-25 05:22:00,
2013-02-25 00:27:00,32.7,24.1,30.00,NNE,13,1.0,5.0,70,0.00,,,0.00,0.0,meteohub,2013-02-25 05:27:00,
2013-02-25 00:32:00,32.9,23.9,30.00,NNE,32,3.0,5.0,69,0.00,,,0.00,0.0,meteohub,2013-02-25 05:32:00,
2013-02-25 00:37:00,32.7,24.1,30.01,NW,309,0.0,5.0,70,0.00,,,0.00,0.0,meteohub,2013-02-25 05:37:00,
2013-02-25 00:42:00,32.7,24.1,30.01,South,182,1.0,5.0,70,0.00,,,0.00,0.0,meteohub,2013-02-25 05:42:00,
2013-02-25 00:47:00,32.4,24.1,30.01,SW,230,1.0,5.0,71,0.00,,,0.00,0.0,meteohub,2013-02-25 05:47:00,
2013-02-25 00:52:00,32.2,23.5,30.01,SE,134,0.0,5.0,70,0.00,,,0.00,0.0,meteohub,2013-02-25 05:52:00,
2013-02-25 00:57:00,32.2,23.9,30.01,WNW,288,0.0,5.0,71,0.00,,,0.00,0.0,meteohub,2013-02-25 05:57:00,
2013-02-25 01:02:00,32.2,24.3,30.01,East,90,2.0,4.0,72,0.00,,,0.00,0.0,meteohub,2013-02-25 06:02:00,
2013-02-25 01:07:00,32.2,24.3,30.01,WSW,241,0.0,4.0,72,0.00,,,0.00,0.0,meteohub,2013-02-25 06:07:00,
2013-02-25 01:12:00,32.2,24.3,30.01,West,267,6.0,6.0,72,0.00,,,0.00,0.0,meteohub,2013-02-25 06:12:00,
2013-02-25 01:17:00,32.4,24.3,30.01,NNE,15,0.0,6.0,72,0.00,,,0.00,0.0,meteohub,2013-02-25 06:17:00,
2013-02-25 01:22:00,32.4,24.3,30.02,West,261,0.0,6.0,72,0.00,,,0.00,0.0,meteohub,2013-02-25 06:22:00,
2013-02-25 01:27:00,32.5,24.8,30.02,SSW,199,4.0,6.0,73,0.00,,,0.00,0.0,meteohub,2013-02-25 06:27:00,
2013-02-25 01:32:00,32.4,24.6,30.02,West,259,1.0,5.0,73,0.00,,,0.00,0.0,meteohub,2013-02-25 06:32:00,
2013-02-25 01:37:00,32.5,25.2,30.02,WSW,244,3.0,5.0,74,0.00,,,0.00,0.0,meteohub,2013-02-25 06:37:00,
2013-02-25 01:42:00,32.5,24.8,30.02,SW,219,0.0,5.0,73,0.00,,,0.00,0.0,meteohub,2013-02-25 06:42:00,
2013-02-25 01:47:00,32.4,24.6,30.02,NNE,12,0.0,5.0,73,0.00,,,0.00,0.0,meteohub,2013-02-25 06:47:00,
2013-02-25 01:52:00,32.4,24.6,30.02,West,278,0.0,5.0,73,0.00,,,0.00,0.0,meteohub,2013-02-25 06:52:00,
2013-02-25 01:57:00,32.5,24.8,30.02,West,261,0.0,7.0,73,0.00,,,0.00,0.0,meteohub,2013-02-25 06:57:00,
2013-02-25 02:02:00,32.5,24.8,30.02,North,11,2.0,7.0,73,0.00,,,0.00,0.0,meteohub,2013-02-25 07:02:00,
2013-02-25 02:07:00,32.4,24.6,30.02,SE,144,0.0,7.0,73,0.00,,,0.00,0.0,meteohub,2013-02-25 07:07:00,
2013-02-25 02:12:00,32.5,24.8,30.02,SSW,200,2.0,7.0,73,0.00,,,0.00,0.0,meteohub,2013-02-25 07:12:00,
2013-02-25 02:17:00,32.9,25.2,30.03,ENE,63,0.0,7.0,73,0.00,,,0.00,0.0,meteohub,2013-02-25 07:17:00,
2013-02-25 02:22:00,32.9,24.8,30.03,ENE,77,0.0,7.0,72,0.00,,,0.00,0.0,meteohub,2013-02-25 07:22:00,
2013-02-25 02:27:00,32.7,24.6,30.03,WSW,257,0.0,5.0,72,0.00,,,0.00,0.0,meteohub,2013-02-25 07:27:00,
2013-02-25 02:32:00,32.7,24.6,30.03,WSW,250,0.0,3.0,72,0.00,,,0.00,0.0,meteohub,2013-02-25 07:32:00,
2013-02-25 02:37:00,32.5,24.8,30.03,WSW,250,2.0,3.0,73,0.00,,,0.00,0.0,meteohub,2013-02-25 07:37:00,
2013-02-25 02:42:00,32.5,24.8,30.03,NW,320,1.0,6.0,73,0.00,,,0.00,0.0,meteohub,2013-02-25 07:42:00,
2013-02-25 02:47:00,32.5,24.4,30.03,WNW,302,1.0,6.0,72,0.00,,,0.00,0.0,meteohub,2013-02-25 07:47:00,
2013-02-25 02:52:00,32.7,25.0,30.03,WSW,257,0.0,6.0,73,0.00,,,0.00,0.0,meteohub,2013-02-25 07:52:00,
2013-02-25 02:57:00,32.9,25.2,30.03,WSW,256,0.0,5.0,73,0.00,,,0.00,0.0,meteohub,2013-02-25 07:57:00,
2013-02-25 03:02:00,32.7,25.3,30.03,WNW,300,0.0,5.0,74,0.00,,,0.00,0.0,meteohub,2013-02-25 08:02:00,
2013-02-25 03:07:00,32.5,25.2,30.03,WNW,300,0.0,3.0,74,0.00,,,0.00,0.0,meteohub,2013-02-25 08:07:00,
2013-02-25 03:12:00,32.5,25.5,30.02,NNE,30,0.0,2.0,75,0.00,,,0.00,0.0,meteohub,2013-02-25 08:12:00,
2013-02-25 03:17:00,32.4,25.7,30.03,NNE,25,0.0,2.0,76,0.00,,,0.00,0.0,meteohub,2013-02-25 08:17:00,
2013-02-25 03:22:00,32.4,25.3,30.03,NNE,28,0.0,4.0,75,0.00,,,0.00,0.0,meteohub,2013-02-25 08:22:00,
2013-02-25 03:27:00,32.5,25.5,30.03,West,261,7.0,7.0,75,0.00,,,0.00,0.0,meteohub,2013-02-25 08:27:00,
2013-02-25 03:32:00,33.1,25.7,30.03,North,5,2.0,8.0,74,0.00,,,0.00,0.0,meteohub,2013-02-25 08:32:00,
2013-02-25 03:37:00,33.3,25.9,30.03,West,281,2.0,8.0,74,0.00,,,0.00,0.0,meteohub,2013-02-25 08:37:00,
2013-02-25 03:42:00,33.4,26.4,30.03,ENE,76,0.0,8.0,75,0.00,,,0.00,0.0,meteohub,2013-02-25 08:42:00,
2013-02-25 03:47:00,33.4,26.4,30.03,SW,225,1.0,7.0,75,0.00,,,0.00,0.0,meteohub,2013-02-25 08:47:00,
2013-02-25 03:52:00,33.4,26.4,30.03,SW,229,1.0,5.0,75,0.00,,,0.00,0.0,meteohub,2013-02-25 08:52:00,
2013-02-25 03:57:00,33.4,26.4,30.03,WSW,248,1.0,5.0,75,0.00,,,0.00,0.0,meteohub,2013-02-25 08:57:00,
2013-02-25 04:02:00,33.6,26.6,30.03,WSW,245,3.0,5.0,75,0.00,,,0.00,0.0,meteohub,2013-02-25 09:02:00,
2013-02-25 04:07:00,33.6,26.2,30.04,WSW,242,3.0,5.0,74,0.00,,,0.00,0.0,meteohub,2013-02-25 09:07:00,
2013-02-25 04:12:00,34.0,26.6,30.04,WSW,253,3.0,10.0,74,0.00,,,0.00,0.0,meteohub,2013-02-25 09:12:00,
2013-02-25 04:17:00,34.0,26.6,30.04,WSW,246,1.0,10.0,74,0.00,,,0.00,0.0,meteohub,2013-02-25 09:17:00,
2013-02-25 04:22:00,34.0,26.6,30.05,WSW,254,1.0,10.0,74,0.00,,,0.00,0.0,meteohub,2013-02-25 09:22:00,
2013-02-25 04:27:00,33.6,26.2,30.05,WSW,254,1.0,6.0,74,0.00,,,0.00,0.0,meteohub,2013-02-25 09:27:00,
2013-02-25 04:32:00,33.4,26.4,30.05,North,355,0.0,6.0,75,0.00,,,0.00,0.0,meteohub,2013-02-25 09:32:00,
2013-02-25 04:37:00,33.4,26.4,30.05,SSW,212,1.0,5.0,75,0.00,,,0.00,0.0,meteohub,2013-02-25 09:37:00,
2013-02-25 04:42:00,33.3,26.2,30.05,WSW,249,4.0,6.0,75,0.00,,,0.00,0.0,meteohub,2013-02-25 09:42:00,
2013-02-25 04:47:00,33.3,26.6,30.05,NNW,333,0.0,6.0,76,0.00,,,0.00,0.0,meteohub,2013-02-25 09:47:00,
2013-02-25 04:52:00,33.1,26.6,30.05,West,273,0.0,5.0,77,0.00,,,0.00,0.0,meteohub,2013-02-25 09:52:00,
2013-02-25 04:57:00,33.1,26.6,30.06,NNE,19,1.0,5.0,77,0.00,,,0.00,0.0,meteohub,2013-02-25 09:57:00,
2013-02-25 05:02:00,32.7,26.2,30.06,NNE,19,0.0,5.0,77,0.00,,,0.00,0.0,meteohub,2013-02-25 10:02:00,
2013-02-25 05:07:00,32.5,25.9,30.06,NNE,19,0.0,2.0,76,0.00,,,0.00,0.0,meteohub,2013-02-25 10:07:00,
2013-02-25 05:12:00,32.5,26.1,30.06,NNE,19,0.0,1.0,77,0.00,,,0.00,0.0,meteohub,2013-02-25 10:12:00,
2013-02-25 05:17:00,32.4,25.9,30.06,NNE,19,0.0,1.0,77,0.00,,,0.00,0.0,meteohub,2013-02-25 10:17:00,
2013-02-25 05:22:00,32.0,25.9,30.06,NNE,19,1.0,1.0,78,0.00,,,0.00,0.0,meteohub,2013-02-25 10:22:00,
2013-02-25 05:27:00,31.5,25.7,30.06,NNE,19,1.0,2.0,79,0.00,,,0.00,0.0,meteohub,2013-02-25 10:27:00,
2013-02-25 05:32:00,31.1,25.7,30.07,NNE,19,0.0,2.0,80,0.00,,,0.00,0.0,meteohub,2013-02-25 10:32:00,
2013-02-25 05:37:00,30.9,25.5,30.07,East,95,0.0,3.0,80,0.00,,,0.00,0.0,meteohub,2013-02-25 10:37:00,
2013-02-25 05:42:00,30.7,25.5,30.07,SSE,158,0.0,3.0,81,0.00,,,0.00,0.0,meteohub,2013-02-25 10:42:00,
2013-02-25 05:47:00,30.6,25.7,30.08,SSE,159,0.0,3.0,82,0.00,,,0.00,0.0,meteohub,2013-02-25 10:47:00,
2013-02-25 05:52:00,30.4,25.9,30.08,SSE,158,0.0,1.0,83,0.00,,,0.00,0.0,meteohub,2013-02-25 10:52:00,
2013-02-25 05:57:00,30.0,25.5,30.08,SSE,158,0.0,1.0,83,0.00,,,0.00,0.0,meteohub,2013-02-25 10:57:00,
2013-02-25 06:02:00,29.8,25.5,30.08,SSE,159,0.0,0.0,84,0.00,,,0.00,0.0,meteohub,2013-02-25 11:02:00,
2013-02-25 06:07:00,29.8,25.5,30.08,SSE,158,0.0,0.0,84,0.00,,,0.00,0.0,meteohub,2013-02-25 11:07:00,
2013-02-25 06:12:00,29.7,25.3,30.09,SSE,159,0.0,0.0,84,0.00,,,0.00,0.0,meteohub,2013-02-25 11:12:00,
2013-02-25 06:17:00,29.3,25.3,30.09,SSE,158,0.0,0.0,85,0.00,,,0.00,0.0,meteohub,2013-02-25 11:17:00,
2013-02-25 06:22:00,29.1,25.2,30.09,SSE,158,0.0,0.0,85,0.00,,,0.00,0.0,meteohub,2013-02-25 11:22:00,
2013-02-25 06:27:00,29.1,25.5,30.09,SSE,158,0.0,0.0,86,0.00,,,0.00,0.0,meteohub,2013-02-25 11:27:00,
2013-02-25 06:32:00,29.1,25.7,30.09,SSE,158,0.0,0.0,87,0.00,,,0.00,0.0,meteohub,2013-02-25 11:32:00,
2013-02-25 06:37:00,29.1,25.7,30.09,SSE,158,0.0,0.0,87,0.00,,,0.00,0.0,meteohub,2013-02-25 11:37:00,
2013-02-25 06:42:00,29.1,25.7,30.09,SSE,158,0.0,0.0,87,0.00,,,0.00,0.0,meteohub,2013-02-25 11:42:00,
2013-02-25 06:47:00,29.5,26.6,30.09,SSE,158,0.0,0.0,89,0.00,,,0.00,7.0,meteohub,2013-02-25 11:47:00,
2013-02-25 06:52:00,29.7,26.8,30.09,SSE,158,0.0,0.0,89,0.00,,,0.00,11.0,meteohub,2013-02-25 11:52:00,
2013-02-25 06:57:00,29.8,27.0,30.10,SSE,159,0.0,2.0,89,0.00,,,0.00,14.0,meteohub,2013-02-25 11:57:00,
2013-02-25 07:02:00,30.0,27.0,30.10,SSE,159,0.0,2.0,88,0.00,,,0.00,21.0,meteohub,2013-02-25 12:02:00,
2013-02-25 07:07:00,30.4,27.3,30.10,SSE,159,0.0,2.0,88,0.00,,,0.00,26.0,meteohub,2013-02-25 12:07:00,
2013-02-25 07:12:00,30.6,27.5,30.10,SSE,159,0.0,0.0,88,0.00,,,0.00,30.0,meteohub,2013-02-25 12:12:00,
2013-02-25 07:17:00,30.7,27.7,30.10,SSE,158,0.0,1.0,88,0.00,,,0.00,39.0,meteohub,2013-02-25 12:17:00,
2013-02-25 07:22:00,31.3,28.2,30.10,SSE,159,0.0,1.0,88,0.00,,,0.00,40.0,meteohub,2013-02-25 12:22:00,
2013-02-25 07:27:00,31.6,28.2,30.11,ESE,111,0.0,2.0,87,0.00,,,0.00,60.0,meteohub,2013-02-25 12:27:00,
2013-02-25 07:32:00,31.8,28.4,30.11,ESE,111,0.0,2.0,87,0.00,,,0.00,62.0,meteohub,2013-02-25 12:32:00,
2013-02-25 07:37:00,32.4,28.9,30.11,West,275,1.0,2.0,87,0.00,,,0.00,127.0,meteohub,2013-02-25 12:37:00,
2013-02-25 07:42:00,33.1,29.3,30.11,NE,38,0.0,3.0,86,0.00,,,0.00,125.0,meteohub,2013-02-25 12:42:00,
2013-02-25 07:47:00,34.0,29.7,30.12,SW,234,1.0,5.0,84,0.00,,,0.00,141.0,meteohub,2013-02-25 12:47:00,
2013-02-25 07:52:00,34.9,30.0,30.12,North,9,0.0,5.0,82,0.00,,,0.00,132.0,meteohub,2013-02-25 12:52:00,
2013-02-25 07:57:00,35.6,29.7,30.12,NNW,340,0.0,3.0,79,0.00,,,0.00,137.0,meteohub,2013-02-25 12:57:00,
2013-02-25 08:03:00,36.1,30.0,30.12,NW,323,3.0,4.0,78,0.00,,,0.00,151.0,meteohub,2013-02-25 13:03:00,
2013-02-25 08:08:00,36.7,30.2,30.12,NW,304,0.0,5.0,77,0.00,,,0.00,199.0,meteohub,2013-02-25 13:08:00,
2013-02-25 08:13:00,37.0,29.8,30.12,NNW,345,0.0,5.0,75,0.00,,,0.00,148.0,meteohub,2013-02-25 13:13:00,
2013-02-25 08:18:00,37.2,29.7,30.12,North,5,1.0,5.0,74,0.00,,,0.00,77.0,meteohub,2013-02-25 13:18:00,
2013-02-25 08:23:00,37.4,29.5,30.12,North,11,0.0,5.0,73,0.00,,,0.00,53.0,meteohub,2013-02-25 13:23:00,
2013-02-25 08:29:00,37.2,29.7,30.13,NE,43,3.0,4.0,74,0.00,,,0.00,56.0,meteohub,2013-02-25 13:29:00,
2013-02-25 08:34:00,36.9,29.7,30.13,North,5,1.0,11.0,75,0.00,,,0.00,76.0,meteohub,2013-02-25 13:34:00,
2013-02-25 08:39:00,36.7,29.5,30.13,NE,46,0.0,11.0,75,0.00,,,0.00,107.0,meteohub,2013-02-25 13:39:00,
2013-02-25 08:44:00,36.7,29.8,30.13,ENE,61,0.0,11.0,76,0.00,,,0.00,128.0,meteohub,2013-02-25 13:44:00,
2013-02-25 08:49:00,36.7,29.8,30.13,ENE,61,0.0,8.0,76,0.00,,,0.00,123.0,meteohub,2013-02-25 13:49:00,
2013-02-25 08:55:00,36.9,30.0,30.13,NE,35,1.0,7.0,76,0.00,,,0.00,123.0,meteohub,2013-02-25 13:55:00,
2013-02-25 09:00:00,36.7,29.1,30.13,North,5,1.0,4.0,74,0.00,,,0.00,128.0,meteohub,2013-02-25 14:00:00,
2013-02-25 09:05:00,36.9,28.9,30.13,East,80,3.0,9.0,73,0.00,,,0.00,139.0,meteohub,2013-02-25 14:05:00,
2013-02-25 09:11:00,37.0,29.1,30.13,NE,53,0.0,9.0,73,0.00,,,0.00,149.0,meteohub,2013-02-25 14:11:00,
2013-02-25 09:16:00,37.2,29.1,30.13,ENE,59,2.0,5.0,72,0.00,,,0.00,172.0,meteohub,2013-02-25 14:16:00,
2013-02-25 09:21:00,37.6,29.3,30.13,NE,38,2.0,5.0,72,0.00,,,0.00,165.0,meteohub,2013-02-25 14:21:00,
2013-02-25 09:27:00,37.6,28.8,30.13,North,0,1.0,11.0,70,0.00,,,0.00,190.0,meteohub,2013-02-25 14:27:00,
2013-02-25 09:32:00,37.8,28.9,30.14,NE,53,0.0,11.0,70,0.00,,,0.00,193.0,meteohub,2013-02-25 14:32:00,
2013-02-25 09:37:00,37.9,28.8,30.14,NW,304,2.0,11.0,69,0.00,,,0.00,155.0,meteohub,2013-02-25 14:37:00,
2013-02-25 09:42:00,38.1,28.2,30.14,WNW,302,3.0,5.0,67,0.00,,,0.00,132.0,meteohub,2013-02-25 14:42:00,
2013-02-25 09:47:00,38.7,27.9,30.15,NNE,22,2.0,5.0,65,0.00,,,0.00,202.0,meteohub,2013-02-25 14:47:00,
2013-02-25 09:52:00,39.0,27.9,30.15,NE,34,3.0,5.0,64,0.00,,,0.00,216.0,meteohub,2013-02-25 14:52:00,
2013-02-25 09:57:00,39.2,27.7,30.15,NNE,17,1.0,5.0,63,0.00,,,0.00,204.0,meteohub,2013-02-25 14:57:00,
2013-02-25 10:02:00,39.0,27.5,30.14,NW,317,6.0,6.0,63,0.00,,,0.00,253.0,meteohub,2013-02-25 15:02:00,
2013-02-25 10:07:00,39.0,27.5,30.14,North,355,1.0,6.0,63,0.00,,,0.00,230.0,meteohub,2013-02-25 15:07:00,
2013-02-25 10:12:00,39.2,27.3,30.14,ENE,77,1.0,7.0,62,0.00,,,0.00,193.0,meteohub,2013-02-25 15:12:00,
2013-02-25 10:17:00,39.0,27.5,30.15,ENE,76,1.0,9.0,63,0.00,,,0.00,221.0,meteohub,2013-02-25 15:17:00,
2013-02-25 10:22:00,39.0,27.5,30.14,NW,324,1.0,9.0,63,0.00,,,0.00,473.0,meteohub,2013-02-25 15:22:00,
2013-02-25 10:27:00,39.4,28.2,30.14,NE,36,4.0,9.0,64,0.00,,,0.00,659.0,meteohub,2013-02-25 15:27:00,
2013-02-25 10:32:00,39.7,28.6,30.14,NNW,340,3.0,7.0,64,0.00,,,0.00,694.0,meteohub,2013-02-25 15:32:00,
2013-02-25 10:37:00,39.9,28.0,30.14,NE,54,2.0,9.0,62,0.00,,,0.00,214.0,meteohub,2013-02-25 15:37:00,
2013-02-25 10:42:00,39.9,28.4,30.14,ENE,57,2.0,9.0,63,0.00,,,0.00,679.0,meteohub,2013-02-25 15:42:00,
2013-02-25 10:48:00,40.1,28.6,30.14,ENE,69,1.0,9.0,63,0.00,,,0.00,232.0,meteohub,2013-02-25 15:48:00,
2013-02-25 10:53:00,40.3,28.2,30.14,NW,324,3.0,4.0,62,0.00,,,0.00,649.0,meteohub,2013-02-25 15:53:00,
2013-02-25 10:58:00,40.6,28.2,30.13,NNE,19,1.0,6.0,61,0.00,,,0.00,677.0,meteohub,2013-02-25 15:58:00,
2013-02-25 11:03:00,40.6,27.9,30.13,NE,36,3.0,7.0,60,0.00,,,0.00,652.0,meteohub,2013-02-25 16:03:00,
2013-02-25 11:08:00,41.2,28.8,30.14,NW,311,2.0,7.0,61,0.00,,,0.00,628.0,meteohub,2013-02-25 16:08:00,
2013-02-25 11:13:00,41.2,28.4,30.14,ENE,62,2.0,7.0,60,0.00,,,0.00,677.0,meteohub,2013-02-25 16:13:00,
2013-02-25 11:18:00,41.4,28.6,30.14,NE,48,0.0,7.0,60,0.00,,,0.00,650.0,meteohub,2013-02-25 16:18:00,
2013-02-25 11:23:00,41.5,29.1,30.14,NNE,21,5.0,7.0,61,0.00,,,0.00,591.0,meteohub,2013-02-25 16:23:00,
2013-02-25 11:28:00,41.5,28.2,30.14,NNW,329,1.0,7.0,59,0.00,,,0.00,239.0,meteohub,2013-02-25 16:28:00,
2013-02-25 11:34:00,41.2,27.9,30.15,NNW,336,1.0,5.0,59,0.00,,,0.00,640.0,meteohub,2013-02-25 16:34:00,
2013-02-25 11:39:00,41.5,28.8,30.14,NW,314,1.0,7.0,60,0.00,,,0.00,698.0,meteohub,2013-02-25 16:39:00,
2013-02-25 11:44:00,42.3,28.6,30.15,ENE,73,0.0,7.0,58,0.00,,,0.00,686.0,meteohub,2013-02-25 16:44:00,
2013-02-25 11:49:00,42.6,28.4,30.15,NE,49,0.0,6.0,57,0.00,,,0.00,657.0,meteohub,2013-02-25 16:49:00,
2013-02-25 11:54:00,42.6,28.4,30.15,NNE,33,1.0,7.0,57,0.00,,,0.00,214.0,meteohub,2013-02-25 16:54:00,
2013-02-25 11:59:00,42.4,28.8,30.15,NW,304,4.0,7.0,58,0.00,,,0.00,174.0,meteohub,2013-02-25 16:59:00,
2013-02-25 12:04:00,41.5,27.9,30.15,ENE,67,0.0,7.0,58,0.00,,,0.00,225.0,meteohub,2013-02-25 17:04:00,
2013-02-25 12:09:00,41.4,28.6,30.15,ENE,62,0.0,6.0,60,0.00,,,0.00,165.0,meteohub,2013-02-25 17:09:00,
2013-02-25 12:14:00,41.4,28.9,30.16,East,87,0.0,8.0,61,0.00,,,0.00,162.0,meteohub,2013-02-25 17:14:00,
2013-02-25 12:19:00,41.4,28.6,30.16,NE,49,1.0,8.0,60,0.00,,,0.00,149.0,meteohub,2013-02-25 17:19:00,
2013-02-25 12:25:00,41.4,28.6,30.15,NE,38,0.0,8.0,60,0.00,,,0.00,148.0,meteohub,2013-02-25 17:25:00,
2013-02-25 12:30:00,41.2,28.8,30.15,NNE,30,0.0,5.0,61,0.00,,,0.00,174.0,meteohub,2013-02-25 17:30:00,
2013-02-25 12:35:00,41.2,28.8,30.16,ENE,63,0.0,8.0,61,0.00,,,0.00,179.0,meteohub,2013-02-25 17:35:00,
2013-02-25 12:40:00,41.4,28.9,30.16,ENE,63,1.0,5.0,61,0.00,,,0.00,162.0,meteohub,2013-02-25 17:40:00,
2013-02-25 12:45:00,41.5,28.8,30.16,WNW,302,0.0,3.0,60,0.00,,,0.00,148.0,meteohub,2013-02-25 17:45:00,
2013-02-25 12:50:00,41.4,28.6,30.16,West,276,0.0,3.0,60,0.00,,,0.00,169.0,meteohub,2013-02-25 17:50:00,
2013-02-25 12:55:00,41.4,28.6,30.16,NE,48,1.0,3.0,60,0.00,,,0.00,190.0,meteohub,2013-02-25 17:55:00,
2013-02-25 13:00:00,41.2,28.4,30.16,NE,46,0.0,7.0,60,0.00,,,0.00,230.0,meteohub,2013-02-25 18:00:00,
2013-02-25 13:06:00,41.4,28.9,30.17,NNW,333,0.0,7.0,61,0.00,,,0.00,216.0,meteohub,2013-02-25 18:06:00,
2013-02-25 13:11:00,41.5,29.1,30.17,ENE,74,1.0,7.0,61,0.00,,,0.00,163.0,meteohub,2013-02-25 18:11:00,
2013-02-25 13:16:00,41.5,28.2,30.17,NE,42,0.0,6.0,59,0.00,,,0.00,146.0,meteohub,2013-02-25 18:16:00,
2013-02-25 13:21:00,41.5,28.2,30.17,East,95,0.0,6.0,59,0.00,,,0.00,134.0,meteohub,2013-02-25 18:21:00,
2013-02-25 13:26:00,41.5,28.2,30.17,ESE,102,1.0,6.0,59,0.00,,,0.00,130.0,meteohub,2013-02-25 18:26:00,
2013-02-25 13:31:00,41.5,28.2,30.16,West,267,5.0,5.0,59,0.00,,,0.00,121.0,meteohub,2013-02-25 18:31:00,
2013-02-25 13:36:00,41.5,28.2,30.16,ENE,66,0.0,6.0,59,0.00,,,0.00,100.0,meteohub,2013-02-25 18:36:00,
2013-02-25 13:41:00,41.4,28.6,30.16,NNE,21,1.0,6.0,60,0.00,,,0.00,116.0,meteohub,2013-02-25 18:41:00,
2013-02-25 13:46:00,41.4,28.0,30.16,NE,54,0.0,6.0,59,0.00,,,0.00,134.0,meteohub,2013-02-25 18:46:00,
2013-02-25 13:52:00,41.5,27.9,30.16,NE,44,0.0,4.0,58,0.00,,,0.00,111.0,meteohub,2013-02-25 18:52:00,
2013-02-25 13:57:00,41.5,28.2,30.16,ENE,60,1.0,3.0,59,0.00,,,0.00,91.0,meteohub,2013-02-25 18:57:00,
2013-02-25 14:02:00,41.4,28.0,30.16,NE,50,3.0,5.0,59,0.00,,,0.00,88.0,meteohub,2013-02-25 19:02:00,
2013-02-25 14:07:00,41.4,28.0,30.16,NNW,342,0.0,5.0,59,0.00,,,0.00,84.0,meteohub,2013-02-25 19:07:00,
2013-02-25 14:12:00,41.2,27.9,30.17,NNW,348,2.0,5.0,59,0.00,,,0.00,86.0,meteohub,2013-02-25 19:12:00,
2013-02-25 14:17:00,41.2,28.4,30.17,NNE,24,1.0,5.0,60,0.00,,,0.00,81.0,meteohub,2013-02-25 19:17:00,
2013-02-25 14:22:00,41.2,28.4,30.17,NNE,27,1.0,4.0,60,0.00,,,0.00,77.0,meteohub,2013-02-25 19:22:00,
2013-02-25 14:27:00,41.0,28.2,30.17,NNE,18,1.0,5.0,60,0.00,,,0.00,79.0,meteohub,2013-02-25 19:27:00,
2013-02-25 14:32:00,41.2,27.9,30.16,NE,38,0.0,5.0,59,0.00,,,0.00,86.0,meteohub,2013-02-25 19:32:00,
2013-02-25 14:37:00,41.2,27.5,30.17,NW,307,0.0,5.0,58,0.00,,,0.00,104.0,meteohub,2013-02-25 19:37:00,
2013-02-25 14:42:00,41.2,27.5,30.17,North,355,0.0,5.0,58,0.00,,,0.00,125.0,meteohub,2013-02-25 19:42:00,
2013-02-25 14:47:00,41.4,27.7,30.17,NE,36,1.0,5.0,58,0.00,,,0.00,100.0,meteohub,2013-02-25 19:47:00,
2013-02-25 14:52:00,41.4,27.7,30.17,North,355,0.0,9.0,58,0.00,,,0.00,98.0,meteohub,2013-02-25 19:52:00,
2013-02-25 14:57:00,41.4,28.0,30.17,NE,51,2.0,9.0,59,0.00,,,0.00,104.0,meteohub,2013-02-25 19:57:00,
2013-02-25 15:02:00,41.4,28.0,30.16,NNE,19,1.0,9.0,59,0.00,,,0.00,105.0,meteohub,2013-02-25 20:02:00,
2013-02-25 15:07:00,41.4,28.0,30.17,NE,40,2.0,3.0,59,0.00,,,0.00,86.0,meteohub,2013-02-25 20:07:00,
2013-02-25 15:12:00,41.5,28.2,30.17,NE,51,0.0,3.0,59,0.00,,,0.00,54.0,meteohub,2013-02-25 20:12:00,
2013-02-25 15:17:00,41.4,28.6,30.17,NE,51,0.0,3.0,60,0.00,,,0.00,54.0,meteohub,2013-02-25 20:17:00,
2013-02-25 15:22:00,41.2,28.4,30.17,NE,46,1.0,6.0,60,0.00,,,0.00,49.0,meteohub,2013-02-25 20:22:00,
2013-02-25 15:27:00,41.2,28.8,30.17,North,5,0.0,6.0,61,0.00,,,0.00,47.0,meteohub,2013-02-25 20:27:00,
2013-02-25 15:32:00,40.8,28.4,30.18,North,10,0.0,6.0,61,0.00,,,0.00,46.0,meteohub,2013-02-25 20:32:00,
2013-02-25 15:37:00,40.8,28.4,30.18,North,5,0.0,4.0,61,0.00,,,0.00,72.0,meteohub,2013-02-25 20:37:00,
2013-02-25 15:42:00,40.8,28.8,30.17,North,5,0.0,3.0,62,0.00,,,0.00,70.0,meteohub,2013-02-25 20:42:00,
2013-02-25 15:47:00,40.8,28.8,30.17,North,5,0.0,3.0,62,0.00,,,0.00,44.0,meteohub,2013-02-25 20:47:00,
2013-02-25 15:52:00,40.8,29.1,30.17,SE,132,0.0,2.0,63,0.00,,,0.00,42.0,meteohub,2013-02-25 20:52:00,
2013-02-25 15:57:00,40.8,28.8,30.17,ENE,65,1.0,3.0,62,0.00,,,0.00,88.0,meteohub,2013-02-25 20:57:00,
2013-02-25 16:02:00,40.8,29.1,30.17,North,9,0.0,6.0,63,0.00,,,0.00,111.0,meteohub,2013-02-25 21:02:00,
2013-02-25 16:07:00,41.0,29.3,30.18,NNE,32,1.0,6.0,63,0.00,,,0.00,72.0,meteohub,2013-02-25 21:07:00,
2013-02-25 16:13:00,41.4,29.3,30.18,NNE,28,3.0,7.0,62,0.00,,,0.00,54.0,meteohub,2013-02-25 21:13:00,
2013-02-25 16:18:00,41.4,29.3,30.18,NNW,331,1.0,7.0,62,0.00,,,0.00,56.0,meteohub,2013-02-25 21:18:00,
2013-02-25 16:23:00,41.4,28.9,30.17,NNE,28,0.0,7.0,61,0.00,,,0.00,70.0,meteohub,2013-02-25 21:23:00,
2013-02-25 16:28:00,41.2,29.1,30.18,NNE,28,0.0,5.0,62,0.00,,,0.00,70.0,meteohub,2013-02-25 21:28:00,
2013-02-25 16:33:00,41.2,28.8,30.18,NNW,341,1.0,3.0,61,0.00,,,0.00,56.0,meteohub,2013-02-25 21:33:00,
2013-02-25 16:38:00,41.0,28.2,30.18,NNE,15,0.0,2.0,60,0.00,,,0.00,44.0,meteohub,2013-02-25 21:38:00,
2013-02-25 16:43:00,40.8,27.7,30.18,ENE,67,0.0,3.0,59,0.00,,,0.00,35.0,meteohub,2013-02-25 21:43:00,
2013-02-25 16:48:00,40.8,28.4,30.18,ENE,65,1.0,5.0,61,0.00,,,0.00,25.0,meteohub,2013-02-25 21:48:00,
2013-02-25 16:53:00,40.8,28.4,30.18,NE,40,0.0,5.0,61,0.00,,,0.00,21.0,meteohub,2013-02-25 21:53:00,
2013-02-25 16:58:00,40.6,28.2,30.18,NE,39,0.0,4.0,61,0.00,,,0.00,19.0,meteohub,2013-02-25 21:58:00,
2013-02-25 17:03:00,40.6,28.6,30.18,NE,41,0.0,4.0,62,0.00,,,0.00,16.0,meteohub,2013-02-25 22:03:00,
2013-02-25 17:08:00,40.5,28.9,30.18,NE,45,0.0,4.0,63,0.00,,,0.00,16.0,meteohub,2013-02-25 22:08:00,
2013-02-25 17:14:00,40.5,28.9,30.18,NE,47,0.0,2.0,63,0.00,,,0.00,14.0,meteohub,2013-02-25 22:14:00,
2013-02-25 17:19:00,40.3,28.8,30.18,ENE,69,0.0,2.0,63,0.00,,,0.00,9.0,meteohub,2013-02-25 22:19:00,
2013-02-25 17:24:00,39.9,28.4,30.18,ENE,69,0.0,4.0,63,0.00,,,0.00,5.0,meteohub,2013-02-25 22:24:00,
2013-02-25 17:29:00,39.7,28.6,30.18,ENE,69,0.0,4.0,64,0.00,,,0.00,0.0,meteohub,2013-02-25 22:29:00,
2013-02-25 17:34:00,39.6,28.8,30.19,ENE,68,0.0,4.0,65,0.00,,,0.00,0.0,meteohub,2013-02-25 22:34:00,
2013-02-25 17:39:00,39.2,28.8,30.20,ENE,68,0.0,2.0,66,0.00,,,0.00,0.0,meteohub,2013-02-25 22:39:00,
2013-02-25 17:44:00,39.0,29.3,30.20,ENE,68,0.0,2.0,68,0.00,,,0.00,0.0,meteohub,2013-02-25 22:44:00,
2013-02-25 17:49:00,38.8,28.8,30.20,ENE,68,0.0,2.0,67,0.00,,,0.00,0.0,meteohub,2013-02-25 22:49:00,
2013-02-25 17:54:00,38.7,28.9,30.21,ENE,68,0.0,0.0,68,0.00,,,0.00,0.0,meteohub,2013-02-25 22:54:00,
2013-02-25 17:59:00,38.5,28.8,30.21,ENE,68,0.0,0.0,68,0.00,,,0.00,0.0,meteohub,2013-02-25 22:59:00,
2013-02-25 18:04:00,38.1,28.9,30.21,ENE,68,0.0,0.0,69,0.00,,,0.00,0.0,meteohub,2013-02-25 23:04:00,
2013-02-25 18:10:00,37.9,29.1,30.22,ENE,68,0.0,0.0,70,0.00,,,0.00,0.0,meteohub,2013-02-25 23:10:00,
2013-02-25 18:15:00,37.8,29.1,30.22,ENE,68,0.0,0.0,71,0.00,,,0.00,0.0,meteohub,2013-02-25 23:15:00,
2013-02-25 18:20:00,37.6,29.1,30.22,ENE,68,0.0,0.0,71,0.00,,,0.00,0.0,meteohub,2013-02-25 23:20:00,
2013-02-25 18:25:00,37.4,29.1,30.22,ENE,68,0.0,0.0,72,0.00,,,0.00,0.0,meteohub,2013-02-25 23:25:00,
2013-02-25 18:30:00,37.2,29.1,30.23,ENE,68,0.0,0.0,72,0.00,,,0.00,0.0,meteohub,2013-02-25 23:30:00,
2013-02-25 18:35:00,37.2,29.1,30.24,ENE,68,0.0,0.0,72,0.00,,,0.00,0.0,meteohub,2013-02-25 23:35:00,
2013-02-25 18:40:00,37.0,28.6,30.24,ENE,68,0.0,0.0,71,0.00,,,0.00,0.0,meteohub,2013-02-25 23:40:00,
2013-02-25 18:45:00,36.9,29.3,30.24,ENE,68,0.0,0.0,74,0.00,,,0.00,0.0,meteohub,2013-02-25 23:45:00,
2013-02-25 18:50:00,36.9,29.3,30.24,ENE,68,0.0,0.0,74,0.00,,,0.00,0.0,meteohub,2013-02-25 23:50:00,
2013-02-25 18:55:00,36.7,28.8,30.24,ENE,68,0.0,0.0,73,0.00,,,0.00,0.0,meteohub,2013-02-25 23:55:00,
2013-02-25 19:01:00,36.5,28.9,30.23,ENE,68,0.0,0.0,74,0.00,,,0.00,0.0,meteohub,2013-02-26 00:01:00,
2013-02-25 19:06:00,36.3,28.8,30.23,ENE,68,0.0,0.0,74,0.00,,,0.00,0.0,meteohub,2013-02-26 00:06:00,
2013-02-25 19:11:00,36.1,29.3,30.24,ENE,68,0.0,0.0,76,0.00,,,0.00,0.0,meteohub,2013-02-26 00:11:00,
2013-02-25 19:16:00,36.1,29.3,30.24,ENE,68,0.0,0.0,76,0.00,,,0.00,0.0,meteohub,2013-02-26 00:16:00,
2013-02-25 19:21:00,36.0,29.1,30.23,ENE,68,0.0,0.0,76,0.00,,,0.00,0.0,meteohub,2013-02-26 00:21:00,
2013-02-25 19:26:00,35.8,29.7,30.23,ENE,68,0.0,0.0,78,0.00,,,0.00,0.0,meteohub,2013-02-26 00:26:00,
2013-02-25 19:31:00,35.8,29.7,30.23,ENE,68,0.0,0.0,78,0.00,,,0.00,0.0,meteohub,2013-02-26 00:31:00,
2013-02-25 19:36:00,35.6,29.7,30.23,ENE,68,0.0,0.0,79,0.00,,,0.00,0.0,meteohub,2013-02-26 00:36:00,
2013-02-25 19:41:00,35.4,29.8,30.24,ENE,68,0.0,0.0,80,0.00,,,0.00,0.0,meteohub,2013-02-26 00:41:00,
2013-02-25 19:46:00,35.4,29.8,30.24,ENE,68,0.0,0.0,80,0.00,,,0.00,0.0,meteohub,2013-02-26 00:46:00,
2013-02-25 19:51:00,35.2,29.7,30.24,ENE,68,0.0,0.0,80,0.00,,,0.00,0.0,meteohub,2013-02-26 00:51:00,
2013-02-25 19:56:00,35.2,29.7,30.23,ENE,68,0.0,0.0,80,0.00,,,0.00,0.0,meteohub,2013-02-26 00:56:00,
2013-02-25 20:02:00,35.1,29.5,30.23,ENE,68,0.0,0.0,80,0.00,,,0.00,0.0,meteohub,2013-02-26 01:02:00,
2013-02-25 20:07:00,35.1,29.5,30.23,ENE,68,0.0,0.0,80,0.00,,,0.00,0.0,meteohub,2013-02-26 01:07:00,
2013-02-25 20:12:00,34.9,29.3,30.24,ENE,68,0.0,0.0,80,0.00,,,0.00,0.0,meteohub,2013-02-26 01:12:00,
2013-02-25 20:17:00,34.9,29.7,30.24,ENE,68,0.0,0.0,81,0.00,,,0.00,0.0,meteohub,2013-02-26 01:17:00,
2013-02-25 20:22:00,34.9,29.7,30.24,ENE,68,0.0,0.0,81,0.00,,,0.00,0.0,meteohub,2013-02-26 01:22:00,
2013-02-25 20:27:00,34.7,29.1,30.24,ENE,68,0.0,0.0,80,0.00,,,0.00,0.0,meteohub,2013-02-26 01:27:00,
2013-02-25 20:32:00,34.5,28.9,30.24,ENE,68,0.0,0.0,80,0.00,,,0.00,0.0,meteohub,2013-02-26 01:32:00,
2013-02-25 20:37:00,34.5,29.3,30.24,ENE,68,0.0,0.0,81,0.00,,,0.00,0.0,meteohub,2013-02-26 01:37:00,
2013-02-25 20:42:00,34.3,29.1,30.24,ENE,68,0.0,0.0,81,0.00,,,0.00,0.0,meteohub,2013-02-26 01:42:00,
2013-02-25 20:47:00,34.3,29.1,30.24,ENE,68,0.0,0.0,81,0.00,,,0.00,0.0,meteohub,2013-02-26 01:47:00,
2013-02-25 20:52:00,34.3,29.5,30.24,ENE,68,0.0,0.0,82,0.00,,,0.00,0.0,meteohub,2013-02-26 01:52:00,
2013-02-25 20:57:00,34.2,29.3,30.24,ENE,68,0.0,0.0,82,0.00,,,0.00,0.0,meteohub,2013-02-26 01:57:00,
2013-02-25 21:02:00,34.2,28.9,30.24,ENE,68,0.0,0.0,81,0.00,,,0.00,0.0,meteohub,2013-02-26 02:02:00,
2013-02-25 21:07:00,34.0,29.1,30.24,ENE,68,0.0,0.0,82,0.00,,,0.00,0.0,meteohub,2013-02-26 02:07:00,
2013-02-25 21:12:00,34.0,29.3,30.24,ENE,68,0.0,0.0,83,0.00,,,0.00,0.0,meteohub,2013-02-26 02:12:00,
2013-02-25 21:18:00,34.0,29.3,30.24,ENE,68,0.0,0.0,83,0.00,,,0.00,0.0,meteohub,2013-02-26 02:18:00,
2013-02-25 21:23:00,34.0,29.7,30.24,ENE,68,0.0,0.0,84,0.00,,,0.00,0.0,meteohub,2013-02-26 02:23:00,
2013-02-25 21:28:00,34.0,29.7,30.24,ENE,68,0.0,0.0,84,0.00,,,0.00,0.0,meteohub,2013-02-26 02:28:00,
2013-02-25 21:33:00,33.8,29.5,30.25,ENE,68,0.0,0.0,84,0.00,,,0.00,0.0,meteohub,2013-02-26 02:33:00,
2013-02-25 21:38:00,33.8,29.8,30.25,ENE,68,0.0,0.0,85,0.00,,,0.00,0.0,meteohub,2013-02-26 02:38:00,
2013-02-25 21:43:00,33.8,29.8,30.25,ENE,68,0.0,0.0,85,0.00,,,0.00,0.0,meteohub,2013-02-26 02:43:00,
2013-02-25 21:48:00,33.8,29.5,30.25,ENE,68,0.0,0.0,84,0.00,,,0.00,0.0,meteohub,2013-02-26 02:48:00,
2013-02-25 21:53:00,33.8,29.8,30.25,ENE,68,0.0,0.0,85,0.00,,,0.00,0.0,meteohub,2013-02-26 02:53:00,
2013-02-25 21:59:00,33.8,29.8,30.25,ENE,68,0.0,1.0,85,0.00,,,0.00,0.0,meteohub,2013-02-26 02:59:00,
2013-02-25 22:04:00,33.8,29.8,30.25,ENE,68,0.0,1.0,85,0.00,,,0.00,0.0,meteohub,2013-02-26 03:04:00,
2013-02-25 22:09:00,34.0,29.7,30.25,ENE,68,0.0,1.0,84,0.00,,,0.00,0.0,meteohub,2013-02-26 03:09:00,
2013-02-25 22:14:00,34.0,29.7,30.26,ENE,68,0.0,1.0,84,0.00,,,0.00,0.0,meteohub,2013-02-26 03:14:00,
2013-02-25 22:19:00,34.2,29.5,30.26,WSW,250,0.0,1.0,83,0.00,,,0.00,0.0,meteohub,2013-02-26 03:19:00,
2013-02-25 22:24:00,34.3,30.0,30.26,WSW,250,0.0,3.0,84,0.00,,,0.00,0.0,meteohub,2013-02-26 03:24:00,
2013-02-25 22:29:00,34.2,30.2,30.26,WSW,250,0.0,3.0,85,0.00,,,0.00,0.0,meteohub,2013-02-26 03:29:00,
2013-02-25 22:34:00,34.2,30.2,30.26,WSW,250,0.0,3.0,85,0.00,,,0.00,0.0,meteohub,2013-02-26 03:34:00,
2013-02-25 22:39:00,34.2,30.2,30.26,WSW,250,0.0,1.0,85,0.00,,,0.00,0.0,meteohub,2013-02-26 03:39:00,
2013-02-25 22:45:00,34.2,30.2,30.27,WSW,250,0.0,1.0,85,0.00,,,0.00,0.0,meteohub,2013-02-26 03:45:00,
2013-02-25 22:50:00,34.2,29.8,30.27,WSW,250,0.0,1.0,84,0.00,,,0.00,0.0,meteohub,2013-02-26 03:50:00,
2013-02-25 22:55:00,34.0,29.7,30.27,WSW,250,0.0,0.0,84,0.00,,,0.00,0.0,meteohub,2013-02-26 03:55:00,
2013-02-25 23:00:00,34.2,30.2,30.27,WSW,250,0.0,0.0,85,0.00,,,0.00,0.0,meteohub,2013-02-26 04:00:00,
2013-02-25 23:05:00,34.2,29.5,30.26,WSW,250,0.0,1.0,83,0.00,,,0.00,0.0,meteohub,2013-02-26 04:05:00,
2013-02-25 23:10:00,34.2,29.5,30.26,WSW,250,0.0,0.0,83,0.00,,,0.00,0.0,meteohub,2013-02-26 04:10:00,
2013-02-25 23:15:00,34.2,29.5,30.27,WSW,250,0.0,0.0,83,0.00,,,0.00,0.0,meteohub,2013-02-26 04:15:00,
2013-02-25 23:20:00,34.3,29.5,30.26,SW,235,0.0,3.0,82,0.00,,,0.00,0.0,meteohub,2013-02-26 04:20:00,
2013-02-25 23:26:00,34.3,29.5,30.26,SW,235,0.0,3.0,82,0.00,,,0.00,0.0,meteohub,2013-02-26 04:26:00,
2013-02-25 23:31:00,34.2,28.9,30.26,SW,235,0.0,3.0,81,0.00,,,0.00,0.0,meteohub,2013-02-26 04:31:00,
2013-02-25 23:36:00,34.0,28.4,30.26,SW,235,0.0,0.0,80,0.00,,,0.00,0.0,meteohub,2013-02-26 04:36:00,
2013-02-25 23:41:00,33.8,28.6,30.26,SW,235,0.0,2.0,81,0.00,,,0.00,0.0,meteohub,2013-02-26 04:41:00,
2013-02-25 23:46:00,33.6,28.4,30.26,SW,235,0.0,2.0,81,0.00,,,0.00,0.0,meteohub,2013-02-26 04:46:00,
2013-02-25 23:51:00,33.3,28.4,30.27,SW,235,0.0,2.0,82,0.00,,,0.00,0.0,meteohub,2013-02-26 04:51:00,
2013-02-25 23:56:00,33.1,28.4,30.26,SW,235,0.0,2.0,83,0.00,,,0.00,0.0,meteohub,2013-02-26 04:56:00,